�N����,����,�~����,�C��,���x,�C��,����,���ϕ���,�ő�u�ԕ���,�ő厞����,���˗�,�I�_���x,�n�����x,�ő啗���N��,DTYPE
"22/02/17","00:10",0.0,-1.0,68.8,1006.0,325.7,2.5,3.1,331.2,0.00,-6.0,5.7,"00:08:00",1
"22/02/17","00:20",0.0,-1.2,69.2,1006.0,327.5,2.1,3.7,326.0,0.00,-6.1,5.7,"00:12:00",1
"22/02/17","00:30",0.0,-1.4,70.1,1006.2,331.7,1.8,2.6,337.4,0.00,-6.1,5.8,"00:22:00",1
"22/02/17","00:40",0.0,-1.4,71.1,1006.2,332.9,2.0,3.3,343.9,0.00,-5.9,5.6,"00:39:12",1
"22/02/17","00:50",0.0,-1.3,71.3,1006.2,320.6,2.1,2.8,324.8,0.00,-5.8,5.7,"00:41:28",1
"22/02/17","01:00",0.0,-1.5,71.7,1006.4,296.2,1.5,1.8,278.5,0.00,-5.9,5.5,"00:56:40",1
"22/02/17","01:10",0.0,-1.7,72.4,1006.2,292.9,1.7,2.4,305.1,0.00,-6.0,5.4,"01:00:40",1
"22/02/17","01:20",0.0,-1.7,73.1,1006.2,311.4,2.0,2.5,311.5,0.00,-5.8,5.4,"01:11:36",1
"22/02/17","01:30",0.0,-1.9,73.7,1005.7,321.3,2.1,3.1,315.0,0.00,-5.9,5.5,"01:21:44",1
"22/02/17","01:40",0.0,-2.1,74.3,1006.0,312.9,2.3,2.9,307.4,0.00,-6.0,5.4,"01:38:24",1
"22/02/17","01:50",0.0,-2.1,74.9,1005.7,303.5,2.5,3.3,315.7,0.00,-5.9,5.3,"01:48:00",1
"22/02/17","02:00",0.0,-2.1,75.4,1005.7,302.9,2.3,3.3,320.0,0.00,-5.8,5.3,"01:58:08",1
"22/02/17","02:10",0.0,-2.1,75.7,1005.7,304.3,2.5,3.4,314.8,0.00,-5.8,5.2,"02:07:04",1
"22/02/17","02:20",0.0,-2.1,76.0,1005.7,293.4,2.2,2.6,295.7,0.00,-5.7,5.2,"02:12:08",1
"22/02/17","02:30",0.0,-2.1,76.1,1005.5,302.7,2.1,2.8,320.0,0.00,-5.7,5.0,"02:25:12",1
"22/02/17","02:40",0.0,-2.2,76.2,1006.0,299.3,2.3,2.9,315.6,0.00,-5.8,5.2,"02:39:36",1
"22/02/17","02:50",0.0,-2.1,76.3,1005.2,303.5,2.3,2.8,324.5,0.00,-5.7,5.1,"02:40:08",1
"22/02/17","03:00",0.0,-2.2,76.5,1005.5,306.7,2.5,3.1,322.0,0.00,-5.7,4.8,"02:54:16",1
"22/02/17","03:10",0.0,-2.2,76.5,1005.7,290.8,2.1,3.2,318.7,0.00,-5.7,4.9,"03:00:40",1
"22/02/17","03:20",0.0,-2.1,76.4,1005.7,293.3,2.1,2.5,303.0,0.00,-5.6,4.8,"03:12:00",1
"22/02/17","03:30",0.0,-2.0,76.0,1006.0,299.7,2.1,2.6,307.6,0.00,-5.6,4.9,"03:25:44",1
"22/02/17","03:40",0.0,-2.0,75.9,1005.7,302.4,2.3,2.9,309.6,0.00,-5.6,4.8,"03:38:00",1
"22/02/17","03:50",0.0,-1.7,75.5,1005.7,287.2,2.2,3.2,276.8,0.00,-5.4,4.8,"03:49:20",1
"22/02/17","04:00",0.0,-1.5,74.8,1005.5,300.8,2.3,3.6,300.0,0.00,-5.3,4.6,"03:59:04",1
"22/02/17","04:10",0.0,-1.1,73.6,1005.5,295.9,2.7,4.9,321.9,0.00,-5.2,4.7,"04:08:32",1
"22/02/17","04:20",0.0,-1.1,72.1,1006.0,276.2,2.5,3.4,283.3,0.00,-5.4,4.7,"04:17:04",1
"22/02/17","04:30",0.0,-1.0,71.1,1006.0,305.4,3.0,4.3,319.1,0.00,-5.5,4.5,"04:26:56",1
"22/02/17","04:40",0.0,-0.7,69.8,1006.2,306.1,3.6,6.0,320.5,0.00,-5.5,4.5,"04:35:36",1
"22/02/17","04:50",0.0,-0.6,68.6,1006.2,300.7,3.7,6.8,333.6,0.00,-5.6,4.7,"04:49:46",1
"22/02/17","05:00",0.0,-0.6,68.1,1006.0,312.0,4.7,7.0,329.9,0.00,-5.7,4.5,"04:55:18",1
"22/02/17","05:10",0.0,-0.8,67.7,1006.2,308.5,3.9,5.2,310.1,0.00,-6.0,4.3,"05:02:24",1
"22/02/17","05:20",0.0,-0.8,67.9,1006.9,311.3,4.0,5.8,318.2,0.00,-5.9,4.4,"05:16:24",1
"22/02/17","05:30",0.0,-0.8,68.1,1006.7,306.4,3.7,6.0,316.2,0.00,-5.9,4.6,"05:25:36",1
"22/02/17","05:40",0.0,-0.8,67.8,1006.9,308.3,4.0,5.8,320.6,0.00,-6.0,4.4,"05:33:28",1
"22/02/17","05:50",0.0,-0.3,66.2,1007.1,317.3,5.2,11.4,349.4,0.00,-5.8,4.5,"05:40:02",1
"22/02/17","06:00",0.0,-0.4,65.2,1007.4,315.2,4.6,7.1,327.9,0.00,-6.1,4.4,"05:50:16",1
"22/02/17","06:10",0.0,-0.5,66.2,1007.6,308.5,4.5,7.1,328.1,0.00,-6.0,4.5,"06:08:02",1
"22/02/17","06:20",0.0,-0.7,67.1,1007.6,300.1,4.0,7.0,309.2,0.00,-6.0,4.5,"06:16:52",1
"22/02/17","06:30",0.0,-0.6,67.2,1007.6,303.9,4.1,8.5,328.3,0.00,-5.9,4.2,"06:25:16",1
"22/02/17","06:40",0.0,-0.9,68.4,1007.8,302.9,4.4,7.3,327.2,0.00,-5.9,4.3,"06:39:22",1
"22/02/17","06:50",0.0,-1.0,69.5,1007.8,302.5,3.6,7.3,345.1,0.00,-5.8,4.3,"06:48:08",1
"22/02/17","07:00",0.0,-1.1,70.3,1007.8,296.3,3.7,6.8,327.7,0.00,-5.8,4.1,"06:53:46",1
"22/02/17","07:10",0.0,-1.1,71.1,1008.1,303.9,4.1,6.3,314.4,0.00,-5.6,4.2,"07:06:24",1
"22/02/17","07:20",0.0,-1.1,71.4,1008.3,302.3,3.9,5.4,316.3,0.00,-5.6,4.2,"07:13:04",1
"22/02/17","07:30",0.0,-1.0,71.8,1008.1,300.6,3.6,5.6,316.5,0.00,-5.4,4.2,"07:23:12",1
"22/02/17","07:40",0.0,-0.8,71.8,1008.6,307.5,4.1,7.4,331.8,0.00,-5.2,4.2,"07:36:10",1
"22/02/17","07:50",0.0,-0.7,71.7,1008.6,313.7,4.7,6.5,315.0,0.00,-5.1,4.1,"07:46:26",1
"22/02/17","08:00",0.0,-0.5,71.9,1008.8,304.7,4.1,6.0,309.3,0.02,-4.9,4.3,"07:51:52",1
"22/02/17","08:10",0.0,-0.2,71.6,1009.3,297.4,3.9,7.4,332.6,0.03,-4.7,4.1,"08:06:12",1
"22/02/17","08:20",0.0,0.1,71.1,1009.3,288.0,3.9,6.7,312.1,0.05,-4.5,4.2,"08:12:32",1
"22/02/17","08:30",0.0,0.3,70.4,1009.3,296.1,4.1,5.7,332.4,0.08,-4.4,4.0,"08:28:24",1
"22/02/17","08:40",0.0,0.7,69.6,1010.0,291.0,3.2,5.8,308.6,0.10,-4.2,4.1,"08:34:48",1
"22/02/17","08:50",0.0,1.0,68.5,1010.0,287.8,3.2,4.9,261.1,0.13,-4.1,4.0,"08:40:24",1
"22/02/17","09:00",0.0,1.0,67.2,1010.4,285.7,4.2,8.7,283.8,0.16,-4.4,4.0,"08:58:24",1
"22/02/17","09:10",0.0,1.3,67.2,1010.7,315.2,5.2,9.5,343.2,0.19,-4.1,4.1,"09:00:36",1
"22/02/17","09:20",0.0,1.3,66.4,1010.4,310.9,5.6,10.5,308.5,0.22,-4.2,3.9,"09:16:16",1
"22/02/17","09:30",0.0,1.6,66.1,1010.9,301.0,5.1,9.3,327.6,0.25,-4.0,4.0,"09:21:36",1
"22/02/17","09:40",0.0,2.0,65.0,1011.2,295.1,4.4,8.5,314.9,0.27,-3.8,4.0,"09:39:02",1
"22/02/17","09:50",0.0,2.1,64.6,1010.7,292.9,4.4,7.5,275.8,0.29,-3.8,4.1,"09:40:48",1
"22/02/17","10:00",0.0,2.3,65.1,1010.7,295.7,5.0,9.4,308.8,0.33,-3.5,3.9,"09:57:04",1
"22/02/17","10:10",0.0,2.3,63.8,1010.9,284.3,5.0,9.5,299.9,0.37,-3.8,4.1,"10:07:00",1
"22/02/17","10:20",0.0,2.5,63.1,1011.2,294.2,6.0,9.1,324.6,0.37,-3.8,4.1,"10:11:12",1
"22/02/17","10:30",0.0,2.6,61.6,1010.9,299.1,6.5,10.9,328.0,0.41,-4.0,4.2,"10:28:14",1
"22/02/17","10:40",0.0,3.1,60.9,1011.4,301.4,6.0,9.7,316.1,0.44,-3.7,4.1,"10:39:48",1
"22/02/17","10:50",0.0,2.7,60.6,1011.4,316.2,6.0,8.9,298.6,0.29,-4.1,4.0,"10:45:32",1
"22/02/17","11:00",0.0,2.7,58.5,1011.6,314.8,6.6,10.3,335.1,0.36,-4.6,4.1,"10:50:08",1
"22/02/17","11:10",0.0,3.5,57.1,1011.6,295.3,5.6,10.1,319.4,0.45,-4.1,4.4,"11:00:40",1
"22/02/17","11:20",0.0,4.1,56.3,1011.9,298.5,4.5,5.9,277.2,0.51,-3.8,4.2,"11:16:32",1
"22/02/17","11:30",0.0,3.7,54.9,1011.9,316.5,4.6,9.4,335.2,0.42,-4.5,4.2,"11:26:10",1
"22/02/17","11:40",0.0,3.5,55.6,1011.9,299.2,5.0,7.5,272.5,0.32,-4.5,4.4,"11:33:52",1
"22/02/17","11:50",0.0,3.5,55.5,1011.6,288.0,5.5,10.2,319.4,0.35,-4.5,4.5,"11:47:28",1
"22/02/17","12:00",0.0,3.9,55.0,1011.6,316.5,4.2,7.3,329.4,0.50,-4.3,4.5,"11:56:32",1
"22/02/17","12:10",0.0,3.5,54.7,1011.6,302.7,6.4,10.1,328.0,0.29,-4.7,4.5,"12:05:42",1
"22/02/17","12:20",0.0,3.3,57.0,1011.4,293.4,6.2,11.7,325.1,0.48,-4.4,4.6,"12:15:16",1
"22/02/17","12:30",0.0,4.2,57.1,1011.6,315.3,4.6,8.5,332.9,0.51,-3.5,4.7,"12:22:16",1
"22/02/17","12:40",0.0,3.1,60.4,1011.6,307.4,6.4,11.2,327.6,0.34,-3.8,4.8,"12:33:58",1
"22/02/17","12:50",0.0,2.9,63.3,1011.9,301.6,5.7,9.3,328.5,0.29,-3.3,4.9,"12:48:08",1
"22/02/17","13:00",0.0,3.5,62.4,1011.6,312.1,7.4,13.3,341.9,0.56,-3.0,4.9,"12:54:34",1
"22/02/17","13:10",0.0,3.5,59.6,1011.6,313.2,6.1,11.2,318.5,0.44,-3.6,5.1,"13:04:48",1
"22/02/17","13:20",0.0,3.8,58.5,1011.6,316.8,6.9,11.2,255.4,0.45,-3.5,5.1,"13:11:30",1
"22/02/17","13:30",0.0,3.4,58.7,1011.2,306.8,6.2,11.6,324.8,0.30,-3.9,5.1,"13:25:32",1
"22/02/17","13:40",0.0,3.9,58.9,1011.2,321.1,6.6,9.7,325.5,0.46,-3.4,5.0,"13:37:00",1
"22/02/17","13:50",0.0,4.0,57.7,1011.2,317.6,6.8,11.1,310.9,0.43,-3.5,5.3,"13:49:46",1
"22/02/17","14:00",0.0,4.5,55.6,1011.6,311.0,6.8,12.7,330.5,0.49,-3.6,5.1,"13:59:10",1
"22/02/17","14:10",0.0,4.2,54.5,1011.4,294.7,6.5,9.8,294.3,0.38,-4.1,5.3,"14:05:30",1
"22/02/17","14:20",0.0,4.3,54.5,1011.2,298.5,6.2,10.5,303.2,0.38,-4.0,5.3,"14:18:54",1
"22/02/17","14:30",0.0,4.3,54.9,1011.4,305.7,6.8,11.1,300.8,0.33,-3.9,5.5,"14:25:16",1
"22/02/17","14:40",0.0,3.8,56.5,1011.2,301.8,5.6,10.5,333.0,0.19,-4.0,5.5,"14:39:48",1
"22/02/17","14:50",0.0,3.9,57.4,1011.2,316.9,5.0,8.9,299.8,0.25,-3.7,5.5,"14:40:40",1
"22/02/17","15:00",0.0,4.2,56.3,1011.4,304.1,5.6,10.0,327.3,0.27,-3.7,5.6,"14:58:08",1
"22/02/17","15:10",0.0,3.8,59.2,1011.4,316.9,7.8,13.9,327.1,0.37,-3.4,5.6,"15:02:18",1
"22/02/17","15:20",0.0,3.9,60.3,1011.6,294.4,7.0,13.3,304.6,0.32,-3.0,5.7,"15:13:38",1
"22/02/17","15:30",0.0,2.9,64.7,1012.3,311.3,6.6,12.3,309.4,0.18,-3.0,5.7,"15:24:26",1
"22/02/17","15:40",0.0,3.3,68.4,1011.9,301.4,6.4,11.2,341.7,0.27,-1.9,5.6,"15:32:26",1
"22/02/17","15:50",0.0,2.9,66.4,1012.3,334.6,5.7,10.0,325.5,0.20,-2.7,5.6,"15:43:08",1
"22/02/17","16:00",0.0,2.0,69.7,1012.3,327.8,5.4,9.4,340.0,0.07,-2.9,5.7,"15:59:34",1
"22/02/17","16:10",0.0,2.0,73.1,1012.3,314.9,5.1,8.9,333.1,0.12,-2.3,5.9,"16:09:40",1
"22/02/17","16:20",0.0,2.0,75.1,1012.3,313.9,4.5,7.7,332.3,0.08,-1.9,5.7,"16:11:12",1
"22/02/17","16:30",0.0,2.0,75.5,1011.6,306.1,5.2,10.8,313.5,0.08,-1.8,5.9,"16:20:24",1
"22/02/17","16:40",0.0,2.3,75.2,1012.1,312.2,5.6,10.4,336.8,0.11,-1.6,6.0,"16:39:56",1
"22/02/17","16:50",0.0,2.2,74.3,1012.3,324.0,6.0,11.6,321.3,0.07,-1.9,5.8,"16:40:12",1
"22/02/17","17:00",0.0,2.0,74.8,1012.3,305.5,4.5,8.1,307.0,0.04,-2.0,5.7,"16:54:58",1
"22/02/17","17:10",0.0,1.4,76.5,1012.3,304.2,4.6,6.4,301.1,0.01,-2.2,5.7,"17:01:40",1
"22/02/17","17:20",0.0,1.6,77.2,1012.3,300.8,4.5,7.4,342.1,0.01,-1.9,5.8,"17:16:42",1
"22/02/17","17:30",0.0,1.6,77.6,1012.3,308.5,4.5,5.8,326.1,0.00,-1.8,5.9,"17:22:18",1
"22/02/17","17:40",0.0,1.7,77.9,1012.8,301.6,4.4,6.8,315.3,0.00,-1.7,5.7,"17:32:38",1
"22/02/17","17:50",0.0,1.5,78.4,1012.8,302.8,4.2,7.1,342.9,0.00,-1.8,5.6,"17:42:46",1
"22/02/17","18:00",0.0,1.6,78.4,1013.3,291.7,4.0,6.4,309.3,0.00,-1.7,5.8,"17:58:32",1
"22/02/17","18:10",0.0,1.6,78.3,1013.3,297.0,3.9,6.5,319.2,0.00,-1.7,5.7,"18:07:22",1
"22/02/17","18:20",0.0,1.3,78.6,1014.0,299.6,4.5,7.0,287.6,0.00,-2.0,5.5,"18:11:00",1
"22/02/17","18:30",0.0,0.8,80.1,1014.0,314.2,4.5,9.1,338.6,0.00,-2.2,5.8,"18:22:48",1
"22/02/17","18:40",0.0,0.5,81.7,1014.0,303.7,4.4,9.8,337.9,0.00,-2.2,5.7,"18:37:22",1
"22/02/17","18:50",0.0,0.3,83.7,1014.0,305.9,5.1,10.3,325.0,0.00,-2.1,5.6,"18:43:30",1
"22/02/17","19:00",0.0,0.2,85.7,1013.8,310.5,5.7,8.2,337.4,0.00,-1.9,5.6,"18:58:06",1
"22/02/17","19:10",0.0,0.3,86.9,1014.2,310.1,5.1,7.7,336.5,0.00,-1.6,5.6,"19:02:24",1
"22/02/17","19:20",0.0,0.4,87.5,1014.2,302.0,5.0,7.7,320.7,0.00,-1.4,5.6,"19:19:52",1
"22/02/17","19:30",0.0,0.4,88.3,1014.5,305.3,4.7,7.9,331.2,0.00,-1.3,5.2,"19:21:44",1
"22/02/17","19:40",0.0,0.3,89.0,1014.5,294.1,3.5,4.9,315.6,0.00,-1.3,5.6,"19:31:04",1
"22/02/17","19:50",0.0,0.1,89.6,1014.7,297.0,2.2,4.2,305.7,0.00,-1.4,5.6,"19:40:08",1
"22/02/17","20:00",0.0,0.0,90.1,1014.9,287.5,1.6,3.4,318.4,0.00,-1.4,5.3,"19:53:44",1
"22/02/17","20:10",0.0,-0.2,90.5,1014.7,294.7,1.5,2.6,327.5,0.00,-1.5,5.4,"20:06:32",1
"22/02/17","20:20",0.0,-0.2,91.2,1014.5,304.4,2.6,4.9,316.0,0.00,-1.4,5.4,"20:18:32",1
"22/02/17","20:30",0.0,-0.4,91.3,1014.2,196.3,0.6,2.2,335.0,0.00,-1.6,5.2,"20:20:08",1
"22/02/17","20:40",0.0,-0.7,91.9,1014.5,191.8,1.0,1.9,208.1,0.00,-1.8,5.4,"20:31:12",1
"22/02/17","20:50",0.0,-0.6,92.1,1014.7,268.1,1.2,2.4,251.9,0.00,-1.7,5.2,"20:46:56",1
"22/02/17","21:00",0.0,-1.2,92.4,1014.9,276.4,0.7,2.1,304.9,0.00,-2.2,5.2,"20:50:08",1
"22/02/17","21:10",0.0,-1.3,92.8,1014.9,290.7,1.1,1.8,328.2,0.00,-2.3,5.4,"21:05:52",1
"22/02/17","21:20",0.0,-1.4,92.9,1014.9,306.7,0.8,2.5,321.6,0.00,-2.4,5.3,"21:13:28",1
"22/02/17","21:30",0.0,-1.1,93.5,1015.4,246.2,0.7,2.1,247.2,0.00,-2.0,5.3,"21:26:48",1
"22/02/17","21:40",0.0,-0.8,93.3,1015.2,247.9,0.8,2.2,246.3,0.00,-1.7,5.3,"21:34:40",1
"22/02/17","21:50",0.0,-0.6,93.4,1015.4,253.7,1.3,2.7,244.2,0.00,-1.5,5.2,"21:46:16",1
"22/02/17","22:00",0.0,-0.5,93.4,1015.4,257.8,1.2,2.8,307.9,0.00,-1.4,5.5,"21:59:52",1
"22/02/17","22:10",0.0,-0.1,93.3,1015.9,284.3,2.6,4.1,261.2,0.00,-1.0,5.2,"22:04:16",1
"22/02/17","22:20",0.0,-0.2,93.0,1015.9,296.7,1.3,3.3,332.6,0.00,-1.2,5.3,"22:10:16",1
"22/02/17","22:30",0.0,-0.7,93.0,1015.9,329.3,0.8,1.7,338.4,0.00,-1.6,5.2,"22:20:02",1
"22/02/17","22:40",0.0,-0.8,93.0,1015.6,331.1,1.2,2.8,318.9,0.00,-1.7,5.1,"22:37:52",1
"22/02/17","22:50",0.0,-0.7,93.3,1015.9,346.4,1.2,2.5,336.8,0.00,-1.6,5.2,"22:44:16",1
"22/02/17","23:00",0.0,-0.4,93.1,1016.1,83.2,1.2,2.6,129.0,0.00,-1.3,5.2,"22:53:44",1
"22/02/17","23:10",0.0,-0.4,93.0,1015.9,124.7,0.8,1.7,266.4,0.00,-1.4,5.2,"23:00:40",1
"22/02/17","23:20",0.0,-0.4,92.9,1016.4,164.4,0.7,1.8,126.9,0.00,-1.4,5.2,"23:19:12",1
"22/02/17","23:30",0.0,-0.2,92.9,1016.1,164.5,0.8,2.0,111.2,0.00,-1.2,5.2,"23:29:28",1
"22/02/17","23:40",0.0,0.1,92.6,1016.6,27.9,1.0,2.6,125.6,0.00,-0.9,5.0,"23:30:24",1
"22/02/17","23:50",0.0,0.2,92.4,1016.6,176.1,1.3,2.7,200.4,0.00,-0.8,5.1,"23:40:02",1
"22/02/17","24:00",0.0,0.2,92.1,1016.6,214.4,1.2,2.8,197.1,0.00,-0.9,5.0,"23:50:56",1
